TimeMDT,TemperatureF,Dew PointF,Humidity,Sea Level PressureIn,VisibilityMPH,Wind Direction,Wind SpeedMPH,Gust SpeedMPH,PrecipitationIn,Events,Conditions,WindDirDegrees,DateUTC
12:56 AM,41.0,32.0,70,30.07,10.0,ESE,8.1,-,0.00,Rain,Light Rain,120,2012-10-22 06:56:00
1:26 AM,39.2,33.8,81,30.05,10.0,SE,10.4,-,0.01,Rain,Light Rain,140,2012-10-22 07:26:00
1:56 AM,39.0,34.0,82,30.06,10.0,East,12.7,17.3,0.02,Rain,Light Rain,90,2012-10-22 07:56:00
2:22 AM,37.4,33.8,87,30.03,10.0,ESE,11.5,-,0.01,Rain,Light Rain,110,2012-10-22 08:22:00
3:56 AM,37.9,33.1,83,30.05,10.0,ESE,10.4,-,0.00,Rain,Light Rain,110,2012-10-22 09:56:00
5:36 AM,35.6,33.8,93,30.01,5.0,East,10.4,-,0.04,Rain,Rain,100,2012-10-22 11:36:00
5:56 AM,36.0,33.1,89,30.05,6.0,East,11.5,-,0.06,Rain,Rain,100,2012-10-22 11:56:00
8:56 AM,37.9,35.1,89,30.05,10.0,ESE,11.5,-,N/A,,Overcast,110,2012-10-22 14:56:00
9:56 AM,39.0,35.1,86,30.04,10.0,ESE,15.0,-,0.00,,Overcast,110,2012-10-22 15:56:00
10:56 AM,39.9,34.0,79,30.04,10.0,ESE,15.0,-,N/A,,Overcast,120,2012-10-22 16:56:00
11:56 AM,39.9,32.0,73,30.03,10.0,ESE,15.0,-,N/A,,Overcast,120,2012-10-22 17:56:00
12:56 PM,42.1,33.1,70,29.98,10.0,ESE,18.4,-,N/A,,Overcast,120,2012-10-22 18:56:00
1:56 PM,43.0,33.1,68,29.94,10.0,ESE,16.1,-,N/A,,Overcast,120,2012-10-22 19:56:00
2:56 PM,41.0,35.1,79,29.91,10.0,ESE,12.7,-,0.01,Rain,Light Rain,110,2012-10-22 20:56:00
3:56 PM,42.1,33.1,70,29.90,10.0,East,16.1,-,0.00,Rain,Light Rain,90,2012-10-22 21:56:00
4:39 PM,42.8,32.0,66,29.84,10.0,East,12.7,-,0.00,,Overcast,80,2012-10-22 22:39:00
5:56 PM,39.0,35.1,86,29.89,10.0,East,12.7,-,0.01,Rain,Light Rain,90,2012-10-22 23:56:00
6:56 PM,37.9,36.0,93,29.86,10.0,East,13.8,-,0.02,Rain,Light Rain,90,2012-10-23 00:56:00
7:56 PM,37.0,35.1,93,29.83,10.0,East,19.6,-,0.00,,Overcast,90,2012-10-23 01:56:00
8:06 PM,37.4,33.8,87,29.76,10.0,East,17.3,24.2,N/A,,Overcast,90,2012-10-23 02:06:00
8:56 PM,37.0,34.0,89,29.78,10.0,East,17.3,23.0,N/A,,Mostly Cloudy,100,2012-10-23 02:56:00
9:56 PM,37.0,34.0,89,29.77,10.0,East,16.1,-,N/A,,Overcast,100,2012-10-23 03:56:00
10:40 PM,37.4,35.6,93,29.68,10.0,ESE,13.8,23.0,0.03,Rain,Light Rain,110,2012-10-23 04:40:00
11:17 PM,37.4,35.6,93,29.66,10.0,ESE,19.6,26.5,0.00,Rain,Light Rain,110,2012-10-23 05:17:00
11:56 PM,37.9,36.0,93,29.71,10.0,ESE,9.2,-,0.00,,Overcast,110,2012-10-23 05:56:00